Regional Weather Roundup
Issued by NWS

Home | Current Version | Previous Version | Graphics & Text | Print | Product List | Glossary On
Versions: 1 2 3 4 5 6 7 8 9 10 11 12 13 14 15 16 17 18 19 20 21 22 23 24 25 26 27 28 29 30 31 32 33 34 35 36 37 38 39 40 41 42 43 44 45 46 47 48 49 50
000
ASUS43 KIND 270709
RWRIN

WEATHER ROUNDUP FOR INDIANA
NATIONAL WEATHER SERVICE INDIANAPOLIS IN
300 AM EDT WED AUG 27 2014

NOTE: "FAIR" INDICATES FEW OR NO CLOUDS BELOW 12,000 FEET WITH NO
SIGNIFICANT WEATHER AND/OR OBSTRUCTIONS TO VISIBILITY.

* - STATION DOES NOT REPORT WEATHER SUCH AS PRECIPITATION OR FOG.

+ - STATION NOT QUALITY CONTROLLED BY THE NATIONAL WEATHER SERVICE.
    USE DATA WITH CAUTION...ESPECIALLY DEWPOINT AND RELATIVE
    HUMIDITY OBSERVATIONS.

INZ001>003-010>013-019-020-270800-
NORTHWEST INDIANA

CITY           SKY/WX    TMP DP  RH WIND       PRES   REMARKS
GARY /AIRPORT/ MOCLDY    71  68  92 E5        30.11F
KNOX *+          N/A     67  65  94 N6        30.10F
LA PORTE +     PTCLDY    63  63 100 NE5       30.12F FOG
MICHIGAN CITY+ PTCLDY    64  64 100 CALM      30.12F FOG
MONTICELLO +   CLOUDY    68  68  99 CALM      30.09F
RENSSELAER +   CLOUDY    70  70 100 NE3       30.11S FOG
VALPARAISO     FOG       67  66  97 NE5       30.12F VSB 1/4

$$

LMZ046-743>745-270800-
SOUTHERN LAKE MICHIGAN

STATION/POSITION TIME  TEMP WIND        PRES
                       AIR  DIR/SP/G
                 (UTC) (F)  (DEG/KT/KT) (MB)
MICHIGAN CITY    0700   68   60/  6/  8   N/A

$$

INZ004-005-014>016-021>024-270800-
NORTH CENTRAL INDIANA

CITY           SKY/WX    TMP DP  RH WIND       PRES   REMARKS
GOSHEN         PTCLDY    70  66  87 N5        30.11S FOG
LOGANSPORT +   MOCLDY    68  66  94 N3        30.10F
PERU/GRISSOM   CLOUDY    72  72 100 SW3       30.09F
ROCHESTER +    CLOUDY    72  72 100 CALM      30.10F FOG
SOUTH BEND     PTCLDY    67  65  93 N3        30.13S
WARSAW +       FOG       68  68 100 N3        30.11F VSB 1/2

$$

INZ006>009-017-018-025>027-270800-
NORTHEAST INDIANA

CITY           SKY/WX    TMP DP  RH WIND       PRES   REMARKS
ANGOLA *+      MOCLDY    70  63  78 N3        30.10F
AUBURN +       PTCLDY    70  66  88 NW3       30.10F
FORT WAYNE     CLOUDY    70  69  97 W3        30.10S
HUNTINGTON +   CLOUDY    70  69  97 CALM      30.10R

$$

INZ028-029-035-036-043>045-051>053-270800-
WEST CENTRAL INDIANA

CITY           SKY/WX    TMP DP  RH WIND       PRES   REMARKS
GREENCASTLE +  CLOUDY    70  68  94 CALM      30.10F
LAFAYETTE      CLOUDY    68  68 100 CALM      30.08F FOG
TERRE HAUTE    CLOUDY    71  68  90 NE3       30.09S

$$

INZ030>032-037>040-046>048-054>057-064-065-270800-
CENTRAL INDIANA

CITY           SKY/WX    TMP DP  RH WIND       PRES   REMARKS
CP ATTERBURY + MOCLDY    68  64  88 CALM      30.10F FOG
FRANKFORT +    CLOUDY   N/A N/A N/A CALM      30.11F HAZE
INDIANAPOLIS   CLOUDY    72  69  90 CALM      30.08F
-EAGLE CREEK   CLOUDY    72  69  90 CALM      30.09F
KOKOMO *+      CLOUDY    70  66  88 W7        30.09F
MARION +       MOCLDY    67  67  97 CALM      30.10F FOG
MT COMFORT *+  MOCLDY    68 N/A N/A CALM      30.11S
SHELBYVILLE    MOCLDY    70  67  90 CALM      30.09F
ZIONSVILLE +   CLOUDY    68  65  90 CALM      30.11F FOG

$$

INZ033-034-041-042-049-050-058-059-270800-
EAST CENTRAL INDIANA

CITY           SKY/WX    TMP DP  RH WIND       PRES   REMARKS
MUNCIE         MOCLDY    70  68  93 CALM      30.10S

$$

INZ060-061-067>069-081>083-085>088-270800-
SOUTHWEST INDIANA

CITY           SKY/WX    TMP DP  RH WIND       PRES   REMARKS
EVANSVILLE     CLEAR     76  72  87 N3        30.08F
WASHINGTON +   MOCLDY    71  71 100 CALM      30.07F FOG

$$

INZ062-063-066-070>080-084-089>092-270800-
SOUTH CENTRAL AND SOUTHEAST INDIANA

CITY           SKY/WX    TMP DP  RH WIND       PRES   REMARKS
BLOOMINGTON    MOCLDY    69  67  93 CALM      30.10S FOG
SEYMOUR +      PTCLDY    70  64  83 CALM      30.09  HAZE

$$



USA.gov is the U.S. government's official web portal to all federal, state and local government web resources and services.